Weather History for Big Piney, WY

Change the Weather History Date:

Friday, November 9, 2012

  Actual Average Record
Temperature  
Mean Temperature 35 °F 27 °F  
Max Temperature 42 °F 42 °F 63 °F (1978)
Min Temperature 28 °F 13 °F -2 °F (1998)
Degree Days  
Heating Degree Days 30 38  
Month to date heating degree days 234 320  
Since 1 July heating degree days 1364 1900  
Cooling Degree Days 0 0  
Month to date cooling degree days 0 0  
Year to date cooling degree days 67 35  
Moisture  
Dew Point 27 °F    
Average Humidity 72    
Maximum Humidity 92    
Minimum Humidity 51    
Precipitation  
Precipitation 0.04 in 0.01 in 0.12 in (2000)
Month to date precipitation 0.04 0.07  
Year to date precipitation 2.54 6.04  
Sea Level Pressure  
Sea Level Pressure 29.55 in    
Wind  
Wind Speed 7 mph (NE)    
Max Wind Speed 21 mph    
Max Gust Speed 37 mph    
Visibility 6 miles    
Events Fog , Rain , Snow    
T = Trace of Precipitation, MM = Missing Value Source: NWS Daily Summary

Daily Weather History Graph

Daily Weather History Graph

Search for Another Location

Airport:

Trip Planner

Search our weather history database for the weather conditions in past years. The results will help you decide how hot, cold, wet, or windy it might be!

Date:

Astronomy

Nov. 09, 2012 Rise Set
Actual Time 7:04 AM MST 5:03 PM MST
Civil Twilight 6:35 AM MST 5:33 PM MST
Nautical Twilight 6:01 AM MST 6:06 PM MST
Astronomical Twilight 5:28 AM MST 6:39 PM MST
Moon 2:01 AM MST (11/9) 2:23 PM MST (11/9)
Length of Visible Light 10h 58m
Length of Day
9h 58m
Waning Crescent, 22% of the Moon is Illuminated
Nov 9
Waning Crescent
Nov 13
New
Nov 20
First Quarter
Nov 28
Full
Dec 6
Last Quarter

Hourly Weather History & Observations

Time (MST) Temp. Windchill Dew Point Humidity Pressure Visibility Wind Dir Wind Speed Gust Speed Precip Events Conditions
12:53 AM 30.9 °F 25.2 °F 19.0 °F 61% 29.50 in 10.0 mi SE 5.8 mph - N/A   Clear
1:53 AM 33.1 °F 26.1 °F 19.0 °F 56% 29.48 in 10.0 mi SSE 8.1 mph - N/A   Clear
2:53 AM 34.0 °F 28.0 °F 21.0 °F 59% 29.46 in 10.0 mi South 6.9 mph - N/A   Scattered Clouds
3:53 AM 35.1 °F 32.2 °F 21.0 °F 57% 29.44 in 10.0 mi SSE 3.5 mph - N/A   Mostly Cloudy
4:53 AM 39.0 °F 30.6 °F 26.1 °F 60% 29.44 in 10.0 mi SSW 15.0 mph - N/A   Mostly Cloudy
5:53 AM 41.0 °F 31.9 °F 28.0 °F 60% 29.44 in 10.0 mi South 19.6 mph - N/A   Partly Cloudy
6:53 AM 41.0 °F 31.6 °F 30.0 °F 65% 29.44 in 10.0 mi SSW 20.7 mph 28.8 mph N/A   Partly Cloudy
7:25 AM 35.6 °F 27.1 °F 28.4 °F 75% 29.60 in 10.0 mi NW 12.7 mph - 0.00 in Rain Light Rain
7:34 AM 33.8 °F 23.9 °F 28.4 °F 81% 29.61 in 2.5 mi NNW 15.0 mph 21.9 mph N/A Snow Light Snow
7:38 AM 32.0 °F 21.2 °F 28.4 °F 87% 29.61 in 0.8 mi North 16.1 mph 21.9 mph 0.00 in Snow Light Snow
7:45 AM 30.2 °F 19.8 °F 28.4 °F 93% 29.61 in 0.8 mi North 13.8 mph 21.9 mph 0.00 in Snow Light Snow
7:53 AM 30.9 °F 20.7 °F 28.9 °F 92% 29.55 in 2.0 mi North 13.8 mph - 0.00 in Snow Light Snow
8:01 AM 32.0 °F 21.6 °F 28.4 °F 87% 29.61 in 5.0 mi North 15.0 mph - 0.00 in   Overcast
8:19 AM 30.2 °F 18.9 °F 28.4 °F 93% 29.62 in 1.5 mi North 16.1 mph 21.9 mph 0.01 in Snow Light Snow
8:28 AM 30.2 °F 18.5 °F 26.6 °F 86% 29.63 in 0.5 mi North 17.3 mph - 0.03 in Fog , Snow Snow
8:39 AM 30.2 °F 19.3 °F 26.6 °F 86% 29.63 in 0.2 mi North 15.0 mph - 0.04 in Fog , Snow Snow
8:46 AM 30.2 °F 18.9 °F 26.6 °F 86% 29.63 in 0.5 mi North 16.1 mph - 0.04 in Fog , Snow Light Snow
8:53 AM 30.9 °F 20.2 °F 27.0 °F 85% 29.59 in 1.5 mi NNE 15.0 mph - 0.04 in Snow Light Snow
8:58 AM 30.2 °F 21.3 °F 26.6 °F 86% 29.63 in 3.0 mi NE 10.4 mph - 0.00 in Snow Light Snow
9:07 AM 30.2 °F 21.9 °F 28.4 °F 93% 29.63 in 7.0 mi NE 9.2 mph - 0.00 in Snow Light Snow
9:53 AM 33.1 °F 24.4 °F 26.1 °F 75% 29.58 in 10.0 mi NNE 11.5 mph - 0.00 in   Overcast
10:53 AM 33.1 °F 24.9 °F 26.1 °F 75% 29.58 in 3.0 mi NNE 10.4 mph - 0.00 in Snow Light Snow
11:07 AM 32.0 °F 24.8 °F 26.6 °F 80% 29.63 in 1.8 mi NNE 8.1 mph - 0.00 in Snow Light Snow
11:31 AM 30.2 °F 23.4 °F 26.6 °F 86% 29.62 in 0.5 mi NNE 6.9 mph - 0.00 in Fog , Snow Snow
11:50 AM 30.2 °F 22.6 °F 28.4 °F 93% 29.61 in 0.8 mi NNE 8.1 mph - 0.00 in Snow Light Snow
11:53 AM 30.9 °F 23.5 °F 28.0 °F 89% 29.57 in 0.8 mi NNE 8.1 mph - 0.00 in Snow Light Snow
12:02 PM 32.0 °F 23.6 °F 28.4 °F 87% 29.60 in 1.5 mi North 10.4 mph - 0.00 in Snow Light Snow
12:06 PM 32.0 °F 24.2 °F 28.4 °F 87% 29.60 in 3.0 mi North 9.2 mph - 0.00 in Snow Light Snow
12:19 PM 32.0 °F 23.6 °F 26.6 °F 80% 29.59 in 10.0 mi North 10.4 mph - 0.00 in   Overcast
12:36 PM 32.0 °F 24.8 °F 26.6 °F 80% 29.59 in 10.0 mi North 8.1 mph - 0.00 in   Overcast
12:53 PM 33.1 °F 26.9 °F 27.0 °F 78% 29.56 in 10.0 mi North 6.9 mph - 0.00 in   Overcast
1:49 PM 33.8 °F 27.7 °F 28.4 °F 81% 29.57 in 10.0 mi East 6.9 mph - 0.00 in   Overcast
1:53 PM 34.0 °F 28.8 °F 28.0 °F 79% 29.52 in 10.0 mi ENE 5.8 mph - 0.00 in   Overcast
2:13 PM 33.8 °F 28.6 °F 26.6 °F 75% 29.56 in 10.0 mi ENE 5.8 mph - N/A   Overcast
2:35 PM 33.8 °F 27.0 °F 26.6 °F 75% 29.54 in 10.0 mi ENE 8.1 mph - N/A   Mostly Cloudy
2:53 PM 34.0 °F 28.0 °F 26.1 °F 73% 29.49 in 10.0 mi ENE 6.9 mph - N/A   Overcast
3:53 PM 33.1 °F 27.7 °F 28.0 °F 82% 29.51 in 2.0 mi SE 5.8 mph - 0.00 in Snow Light Snow
3:57 PM 32.0 °F 27.5 °F 28.4 °F 87% 29.56 in 1.8 mi SE 4.6 mph - 0.00 in Snow Light Snow
4:03 PM 32.0 °F 27.5 °F 28.4 °F 87% 29.56 in 2.0 mi SE 4.6 mph - 0.00 in Snow Light Snow
4:14 PM 32.0 °F 28.7 °F 28.4 °F 87% 29.55 in 4.0 mi ESE 3.5 mph - 0.00 in Snow Light Snow
4:21 PM 32.0 °F 27.5 °F 28.4 °F 87% 29.54 in 1.8 mi ESE 4.6 mph - 0.00 in Snow Light Snow
4:29 PM 32.0 °F 27.5 °F 28.4 °F 87% 29.55 in 2.0 mi SE 4.6 mph - 0.00 in Snow Light Snow
4:39 PM 30.2 °F 26.7 °F 28.4 °F 93% 29.54 in 6.0 mi SE 3.5 mph - 0.00 in Snow Light Snow
4:53 PM 30.9 °F - 28.9 °F 92% 29.47 in 7.0 mi Calm Calm - 0.00 in Snow Light Snow
5:08 PM 30.2 °F - 28.4 °F 93% 29.54 in 2.5 mi Calm Calm - 0.00 in Snow Light Snow
5:16 PM 30.2 °F 24.3 °F 28.4 °F 93% 29.55 in 4.0 mi SSW 5.8 mph - 0.00 in Snow Light Snow
5:39 PM 30.2 °F 26.7 °F 28.4 °F 93% 29.55 in 3.0 mi SW 3.5 mph - 0.00 in Snow Light Snow
5:46 PM 30.2 °F 26.7 °F 30.2 °F 100% 29.55 in 2.5 mi SW 3.5 mph - 0.00 in Snow Light Snow
5:53 PM 30.0 °F - 28.9 °F 96% 29.46 in 2.0 mi Calm Calm - 0.00 in Snow Light Snow
6:08 PM 30.2 °F 26.7 °F 28.4 °F 93% 29.55 in 4.0 mi SW 3.5 mph - 0.00 in Snow Light Snow
6:19 PM 30.2 °F 26.7 °F 28.4 °F 93% 29.56 in 6.0 mi WSW 3.5 mph - 0.00 in   Overcast
6:53 PM 30.0 °F - 28.0 °F 92% 29.46 in 3.0 mi Calm Calm - 0.00 in Snow Light Snow
7:00 PM 30.2 °F 26.7 °F 28.4 °F 93% 29.53 in 2.5 mi West 3.5 mph - 0.00 in Snow Light Snow
7:08 PM 30.2 °F - 28.4 °F 93% 29.53 in 3.0 mi Calm Calm - 0.00 in Snow Light Snow
7:39 PM 30.2 °F - 28.4 °F 93% 29.55 in 8.0 mi Calm Calm - 0.00 in   Overcast
7:53 PM 30.0 °F 26.5 °F 28.0 °F 92% 29.53 in 10.0 mi WSW 3.5 mph - 0.00 in   Overcast
8:43 PM 30.2 °F - 28.4 °F 93% 29.54 in 10.0 mi Calm Calm - 0.00 in   Overcast
8:53 PM 28.9 °F - 27.0 °F 92% 29.53 in 10.0 mi Calm Calm - 0.00 in   Overcast
9:27 PM 28.4 °F - 28.4 °F 100% 29.55 in 10.0 mi Calm Calm - N/A   Overcast
9:40 PM 30.2 °F - 28.4 °F 93% 29.55 in 10.0 mi Calm Calm - N/A   Overcast
9:53 PM 30.0 °F - 28.0 °F 92% 29.51 in 10.0 mi Calm Calm - N/A   Overcast
10:23 PM 30.2 °F - 28.4 °F 93% 29.54 in 10.0 mi Calm Calm - N/A   Overcast
10:53 PM 30.9 °F - 28.0 °F 89% 29.51 in 10.0 mi Calm Calm - N/A   Overcast
10:55 PM 30.2 °F - 28.4 °F 93% 29.55 in 10.0 mi Calm Calm - N/A   Overcast
11:01 PM 30.2 °F 26.7 °F 28.4 °F 93% 29.55 in 10.0 mi SE 3.5 mph - N/A   Overcast
11:09 PM 30.2 °F 26.7 °F 28.4 °F 93% 29.55 in 7.0 mi East 3.5 mph - N/A   Overcast
11:17 PM 30.2 °F - 28.4 °F 93% 29.55 in 8.0 mi Calm Calm - N/A   Overcast
11:45 PM 30.2 °F 26.7 °F 26.6 °F 86% 29.54 in 10.0 mi NE 3.5 mph - N/A   Overcast
11:53 PM 30.0 °F 25.2 °F 26.1 °F 85% 29.52 in 10.0 mi NNE 4.6 mph - N/A   Overcast